Location: Newport
(44.6370°N, 124.0520°W)
Time: 03:17:25
(UTC-08:00)

Vanguard 1 - All Passes

Search period start: 16 December 2017 00:00
Search period end: 26 December 2017 00:00
Orbit: 650 x 3834 km, 34.2° (Epoch: 15 December)

Date Brightness Start Highest point End Pass type
(mag) Time Alt. Az. Time Alt. Az. Time Alt. Az.
16 Dec - 05:51:22 10° S 06:07:30 24° SE 06:21:51 10° E visible
16 Dec - 08:10:07 10° SW 08:31:18 46° SSE 08:46:22 10° E daylight
16 Dec - 10:35:03 10° WSW 10:55:19 57° S 11:07:11 10° ESE daylight
16 Dec - 13:02:21 10° W 13:17:23 43° SSW 13:25:57 10° SE daylight
16 Dec - 15:31:20 10° WSW 15:36:26 14° SW 15:40:28 10° SSW daylight
17 Dec - 06:10:04 10° SSW 06:28:18 31° SE 06:44:09 10° E visible
17 Dec - 08:30:41 10° SW 08:52:27 52° SSE 09:07:32 10° E daylight
17 Dec - 10:56:27 10° WSW 11:16:25 57° S 11:27:59 10° ESE daylight
17 Dec - 13:24:02 10° W 13:38:01 37° SSW 13:46:15 10° SSE daylight
18 Dec - 04:17:52 10° SSE 04:26:26 13° SE 04:34:55 10° ESE visible
18 Dec - 06:29:27 10° SSW 06:49:11 37° SSE 07:05:58 10° E visible
18 Dec - 08:51:32 10° WSW 09:13:39 56° SSE 09:28:35 10° E daylight
18 Dec - 11:17:56 10° W 11:37:28 55° SSW 11:48:43 10° ESE daylight
18 Dec - 13:45:51 10° W 13:58:29 31° SW 14:06:18 10° SSE daylight
19 Dec - 04:33:35 10° SSE 04:46:54 19° SE 05:00:06 10° E visible
19 Dec - 06:49:19 10° SSW 07:10:09 43° SSE 07:27:29 10° E visible
19 Dec - 09:12:35 10° WSW 09:34:52 59° S 09:49:35 10° E daylight
19 Dec - 11:39:29 10° W 11:58:25 52° SSW 12:09:21 10° SE daylight
19 Dec - 14:07:55 10° W 14:18:49 24° SW 14:26:00 10° S daylight
20 Dec - 04:51:25 10° S 05:07:27 25° SE 05:23:16 10° E visible
20 Dec - 07:09:33 10° SW 07:31:13 49° SSE 07:48:50 10° E visible
20 Dec - 09:33:50 10° WSW 09:56:06 60° S 10:10:30 10° ESE daylight
20 Dec - 12:01:07 10° W 12:19:15 47° SSW 12:29:51 10° SE daylight
20 Dec - 14:30:28 10° W 14:38:59 18° SW 14:45:09 10° S daylight
21 Dec - 05:10:15 10° SSW 05:28:04 32° SE 05:45:37 10° E visible
21 Dec - 07:30:08 10° SW 07:52:21 54° SSE 08:10:03 10° E daylight
21 Dec - 09:55:11 10° WSW 10:17:17 60° S 10:31:22 10° ESE daylight
21 Dec - 12:22:49 10° W 12:39:56 41° SSW 12:50:11 10° SE daylight
21 Dec - 14:54:15 10° WSW 14:59:02 13° SW 15:03:01 10° SSW daylight
22 Dec - 03:18:32 10° SSE 03:26:41 13° SE 03:35:13 10° ESE visible
22 Dec - 05:29:42 10° SSW 05:48:49 38° SE 06:07:29 10° E visible
22 Dec - 07:50:56 10° WSW 08:13:35 58° SSE 08:31:11 10° E daylight
22 Dec - 10:16:39 10° W 10:38:25 58° SSW 10:52:09 10° ESE daylight
22 Dec - 12:44:39 10° W 13:00:27 35° SW 13:10:16 10° SSE daylight
23 Dec - 03:34:28 10° SSE 03:46:57 19° SE 04:00:27 10° E visible
23 Dec - 05:49:35 10° SSW 06:09:41 44° SSE 06:29:05 10° E visible
23 Dec - 08:11:56 10° WSW 08:34:51 61° S 08:52:15 10° E daylight
23 Dec - 10:38:11 10° W 10:59:28 55° SSW 11:12:50 10° SE daylight
23 Dec - 13:06:43 10° W 13:20:48 29° SW 13:30:01 10° S daylight
24 Dec - 03:52:25 10° S 04:07:18 25° SE 04:23:43 10° E visible
24 Dec - 06:09:50 10° SW 06:30:40 50° SSE 06:50:30 10° E visible
24 Dec - 08:33:07 10° WSW 08:56:08 62° S 09:13:15 10° ESE daylight
24 Dec - 10:59:46 10° W 11:20:23 50° SSW 11:33:21 10° SE daylight
24 Dec - 13:29:10 10° W 13:41:00 22° SW 13:49:18 10° S daylight
25 Dec - 04:11:20 10° SSW 04:27:45 32° SE 04:46:09 10° E visible
25 Dec - 06:30:22 10° SW 06:51:46 55° SSE 07:11:49 10° E visible
25 Dec - 08:54:24 10° WSW 09:17:24 62° S 09:34:11 10° ESE daylight
25 Dec - 11:21:27 10° W 11:41:08 45° SSW 11:53:42 10° SE daylight
25 Dec - 13:52:26 10° W 14:01:04 16° SW 14:07:44 10° SSW daylight
